Overview Statistics Trail Chart Weather Telemetry Raw packets
 

This is the latest recevied weather packets stored in our database for station/object KC1OEK-13. If no packets are shown the sender has not sent any weather packets the latest 10 day(s).

<< 1 2 3 4 >>
Time Temp. Humidity Pressure Rain* Wind** Luminosity Snow
1788614121 20° C 83% 1013 hPa 0 mm - 341 W/m² -
1788613817 20° C 85% 1013 hPa 0 mm - 332 W/m² -
1788613516 18.89° C 87% 1012.9 hPa 0 mm - 329 W/m² -
1788613211 18.33° C 91% 1012.9 hPa 0 mm - 314 W/m² -
1788612905 17.22° C 93% 1013.2 hPa 0 mm - 300 W/m² -
1788612601 16.67° C 95% 1013.2 hPa 0 mm - 289 W/m² -
1788612297 16.67° C 98% 1013.2 hPa 0 mm - 280 W/m² -
1788611993 16.67° C 99% 1013.4 hPa 0 mm - 265 W/m² -
1788611689 16.67° C 99% 1013.4 hPa 0 mm - 257 W/m² -
1788611388 16.11° C 99% 1013.3 hPa 0 mm - 250 W/m² -
1788611083 15.56° C 99% 1013.2 hPa 0 mm - 248 W/m² -
1788610779 15° C 99% 1013 hPa 0 mm - 227 W/m² -
1788610474 15° C 99% 1013.2 hPa 0 mm - 160 W/m² -
1788610173 15° C 99% 1013.4 hPa 0 mm - 119 W/m² -
1788609868 14.44° C 99% 1013.4 hPa 0 mm - 121 W/m² -
1788609563 14.44° C 99% 1013.3 hPa 0 mm - 93 W/m² -
1788609262 13.89° C 99% 1013.1 hPa 0 mm - 78 W/m² -
1788608957 13.89° C 99% 1013.1 hPa 0 mm - 67 W/m² -
1788608656 13.89° C 99% 1012.8 hPa 0 mm - 65 W/m² -
1788608350 13.89° C 99% 1012.9 hPa 0 mm - 44 W/m² -
1788608046 13.89° C 99% 1012.9 hPa 0 mm - 49 W/m² -
1788607741 13.89° C 99% 1012.9 hPa 0 mm - 38 W/m² -
1788607436 13.89° C 99% 1012.8 hPa 0 mm - 37 W/m² -
1788607130 13.33° C 99% 1012.7 hPa 0 mm - 51 W/m² -
1788606825 13.89° C 99% 1012.8 hPa 0 mm - 39 W/m² -

* Rain latest hour (hover to see other rain measurements)
** Current wind speed in m/s (hover to see current wind gust speed)